When you browse on this site, cookies collect data to enhance your experience and personalize the content and advertising you see.
Visit our Privacy Policy to learn more. By continuing to use the site, you agree to this use of cookies and data.
  • In United Kingdom
  • List of Countries
  • For 7 days
  • Water Temperature
  • Weather Map
  • Weather Widgets
  • user-avatar
    Login

    Hourly Weather Kastoria

    Today, 21 August, Wednesday

    Time Temperature Precipitation Wind Pressure Humidity
    00:00 +21°C° 0 mm 1 mps 706 mmHg 59%
    01:00 +20°C° 0 mm 1 mps 706 mmHg 61%
    02:00 +18°C° 0 mm 0 mps 705 mmHg 62%
    03:00 +17°C° 0 mm 0 mps 705 mmHg 63%
    04:00 +17°C° 0 mm 0 mps 705 mmHg 64%
    05:00 +19°C° 0 mm 0 mps 706 mmHg 57%
    06:00 +21°C° 0 mm 0 mps 706 mmHg 50%
    07:00 +23°C° 0 mm 0 mps 706 mmHg 44%
    08:00 +27°C° 0 mm 1 mps 706 mmHg 39%
    09:00 +29°C° 0 mm 1 mps 707 mmHg 35%
    10:00 +31°C° 0 mm 1 mps 707 mmHg 30%
    11:00 +32°C° 0 mm 2 mps 707 mmHg 28%
    12:00 +34°C° 0 mm 2 mps 706 mmHg 25%
    13:00 +35°C° 0 mm 2 mps 706 mmHg 22%
    14:00 +35°C° 0 mm 2 mps 706 mmHg 22%
    15:00 +35°C° 0 mm 3 mps 706 mmHg 22%
    16:00 +35°C° 0 mm 3 mps 705 mmHg 22%
    17:00 +31°C° 0 mm 2 mps 705 mmHg 28%
    18:00 +28°C° 0 mm 2 mps 705 mmHg 34%
    19:00 +26°C° 0 mm 1 mps 705 mmHg 40%
    20:00 +25°C° 0 mm 1 mps 705 mmHg 42%
    21:00 +24°C° 0 mm 1 mps 705 mmHg 44%
    22:00 +22°C° 0 mm 1 mps 705 mmHg 46%
    23:00 +22°C° 0 mm 1 mps 705 mmHg 47%

    Tomorrow, 22 August, Thursday

    Time Temperature Precipitation Wind Pressure Humidity
    00:00 +19°C° 0 mm 0 mps 705 mmHg 48%
    01:00 +19°C° 0 mm 0 mps 705 mmHg 48%
    02:00 +18°C° 0 mm 0 mps 705 mmHg 49%
    03:00 +18°C° 0 mm 0 mps 705 mmHg 50%
    04:00 +18°C° 0 mm 0 mps 704 mmHg 50%
    05:00 +22°C° 0 mm 1 mps 705 mmHg 46%
    06:00 +24°C° 0 mm 1 mps 706 mmHg 41%
    07:00 +26°C° 0 mm 1 mps 706 mmHg 36%
    08:00 +28°C° 0 mm 1 mps 707 mmHg 33%
    09:00 +30°C° 0 mm 2 mps 707 mmHg 30%
    10:00 +33°C° 0 mm 3 mps 707 mmHg 27%
    11:00 +34°C° 0 mm 3 mps 707 mmHg 25%
    12:00 +34°C° 0 mm 3 mps 707 mmHg 23%
    13:00 +35°C° 0 mm 3 mps 706 mmHg 22%
    14:00 +35°C° 0 mm 3 mps 706 mmHg 22%
    15:00 +35°C° 0 mm 3 mps 706 mmHg 22%
    16:00 +35°C° 0 mm 3 mps 706 mmHg 22%
    17:00 +31°C° 0 mm 3 mps 706 mmHg 27%
    18:00 +29°C° 0 mm 2 mps 706 mmHg 32%
    19:00 +26°C° 0 mm 2 mps 706 mmHg 36%
    20:00 +25°C° 0 mm 1 mps 706 mmHg 42%
    21:00 +24°C° 0 mm 1 mps 706 mmHg 48%
    22:00 +23°C° 0 mm 1 mps 706 mmHg 53%
    23:00 +23°C° 0 mm 1 mps 706 mmHg 55%

    Day after tomorrow, 23 August, Friday

    Time Temperature Precipitation Wind Pressure Humidity
    00:00 +22°C° 0 mm 1 mps 706 mmHg 57%
    01:00 +22°C° 0 mm 1 mps 706 mmHg 59%
    02:00 +22°C° 0 mm 1 mps 706 mmHg 60%
    03:00 +22°C° 0 mm 1 mps 706 mmHg 62%
    04:00 +21°C° 0 mm 1 mps 706 mmHg 63%
    05:00 +23°C° 0 mm 1 mps 706 mmHg 57%
    06:00 +25°C° 0 mm 1 mps 707 mmHg 52%
    07:00 +25°C° 0 mm 0 mps 707 mmHg 46%
    08:00 +28°C° 0 mm 1 mps 707 mmHg 42%
    09:00 +30°C° 0 mm 2 mps 707 mmHg 37%
    10:00 +33°C° 0 mm 3 mps 707 mmHg 33%
    11:00 +33°C° 0 mm 3 mps 707 mmHg 32%
    12:00 +33°C° 0 mm 3 mps 707 mmHg 31%
    13:00 +33°C° 0 mm 3 mps 706 mmHg 30%
    14:00 +33°C° 0 mm 3 mps 706 mmHg 31%
    15:00 +31°C° 0 mm 2 mps 706 mmHg 32%
    16:00 +31°C° 0 mm 2 mps 706 mmHg 33%
    17:00 +29°C° 0 mm 2 mps 706 mmHg 37%
    18:00 +28°C° 0 mm 1 mps 705 mmHg 40%
    19:00 +26°C° 0 mm 1 mps 705 mmHg 44%
    20:00 +25°C° 0 mm 1 mps 705 mmHg 47%
    21:00 +24°C° 0 mm 1 mps 705 mmHg 50%
    22:00 +21°C° 0 mm 0 mps 706 mmHg 53%
    23:00 +23°C° 0 mm 1 mps 705 mmHg 54%

    24 August, Saturday

    Time Temperature Precipitation Wind Pressure Humidity
    00:00 +22°C° 0 mm 1 mps 705 mmHg 55%
    01:00 +22°C° 0 mm 1 mps 705 mmHg 55%
    02:00 +22°C° 0 mm 1 mps 705 mmHg 57%
    03:00 +21°C° 0 mm 1 mps 705 mmHg 59%
    04:00 +21°C° 0 mm 1 mps 705 mmHg 61%
    05:00 +23°C° 0 mm 1 mps 705 mmHg 55%
    06:00 +25°C° 0 mm 1 mps 705 mmHg 50%
    07:00 +26°C° 0 mm 1 mps 706 mmHg 45%
    08:00 +28°C° 0 mm 2 mps 706 mmHg 40%
    09:00 +30°C° 0 mm 3 mps 706 mmHg 36%
    10:00 +32°C° 0 mm 4 mps 707 mmHg 31%
    11:00 +33°C° 0 mm 4 mps 706 mmHg 29%
    12:00 +34°C° 0 mm 4 mps 706 mmHg 27%
    13:00 +35°C° 0 mm 4 mps 706 mmHg 25%
    14:00 +34°C° 0 mm 4 mps 705 mmHg 25%
    15:00 +34°C° 0 mm 3 mps 705 mmHg 25%
    16:00 +34°C° 0 mm 3 mps 705 mmHg 25%
    17:00 +31°C° 0 mm 3 mps 705 mmHg 29%
    18:00 +28°C° 0 mm 3 mps 704 mmHg 33%
    19:00 +26°C° 0 mm 2 mps 704 mmHg 37%
    20:00 +25°C° 0 mm 2 mps 704 mmHg 41%
    21:00 +24°C° 0 mm 1 mps 704 mmHg 45%
    22:00 +22°C° 0 mm 1 mps 704 mmHg 49%
    23:00 +22°C° 0 mm 1 mps 704 mmHg 50%

    25 August, Sunday

    Time Temperature Precipitation Wind Pressure Humidity
    00:00 +22°C° 0 mm 1 mps 704 mmHg 51%
    01:00 +19°C° 0 mm 0 mps 704 mmHg 52%
    02:00 +19°C° 0 mm 0 mps 703 mmHg 52%
    03:00 +19°C° 0 mm 0 mps 703 mmHg 53%
    04:00 +19°C° 0 mm 0 mps 703 mmHg 54%
    05:00 +21°C° 0 mm 0 mps 704 mmHg 49%
    06:00 +23°C° 0 mm 0 mps 704 mmHg 43%
    07:00 +25°C° 0 mm 0 mps 705 mmHg 38%
    08:00 +29°C° 0 mm 1 mps 705 mmHg 36%
    09:00 +30°C° 0 mm 2 mps 705 mmHg 33%
    10:00 +33°C° 0 mm 3 mps 705 mmHg 30%
    11:00 +33°C° 0 mm 3 mps 705 mmHg 29%
    12:00 +34°C° 0 mm 3 mps 704 mmHg 28%
    13:00 +34°C° 0 mm 3 mps 704 mmHg 27%
    14:00 +34°C° 0 mm 3 mps 704 mmHg 27%
    15:00 +34°C° 0 mm 3 mps 704 mmHg 27%
    16:00 +34°C° 0 mm 3 mps 704 mmHg 27%
    17:00 +31°C° 0 mm 2 mps 703 mmHg 31%
    18:00 +29°C° 0 mm 2 mps 703 mmHg 36%
    19:00 +26°C° 0 mm 1 mps 703 mmHg 40%
    20:00 +25°C° 0 mm 1 mps 703 mmHg 43%
    21:00 +24°C° 0 mm 1 mps 703 mmHg 47%
    22:00 +21°C° 0 mm 0 mps 704 mmHg 50%
    23:00 +23°C° 0 mm 1 mps 703 mmHg 51%

    26 August, Monday

    Time Temperature Precipitation Wind Pressure Humidity
    00:00 +22°C° 0 mm 1 mps 703 mmHg 53%
    01:00 +22°C° 0 mm 1 mps 703 mmHg 55%
    02:00 +21°C° 0 mm 1 mps 703 mmHg 57%
    03:00 +21°C° 0 mm 1 mps 703 mmHg 60%
    04:00 +21°C° 0 mm 1 mps 703 mmHg 63%
    05:00 +23°C° 0 mm 1 mps 703 mmHg 57%
    06:00 +24°C° 0 mm 1 mps 704 mmHg 51%
    07:00 +26°C° 0 mm 1 mps 704 mmHg 45%
    08:00 +28°C° 0 mm 2 mps 705 mmHg 39%
    09:00 +31°C° 0 mm 3 mps 705 mmHg 32%
    10:00 +34°C° 0 mm 3 mps 705 mmHg 26%
    11:00 +34°C° 0 mm 4 mps 705 mmHg 24%
    12:00 +35°C° 0 mm 4 mps 705 mmHg 23%
    13:00 +35°C° 0 mm 5 mps 705 mmHg 21%
    14:00 +35°C° 0 mm 4 mps 705 mmHg 21%
    15:00 +35°C° 0 mm 4 mps 705 mmHg 22%
    16:00 +34°C° 0 mm 4 mps 705 mmHg 22%
    17:00 +31°C° 0 mm 3 mps 705 mmHg 27%
    18:00 +28°C° 0 mm 2 mps 705 mmHg 32%
    19:00 +26°C° 0 mm 2 mps 705 mmHg 38%
    20:00 +25°C° 0 mm 2 mps 705 mmHg 43%
    21:00 +24°C° 0 mm 1 mps 705 mmHg 49%
    22:00 +23°C° 0 mm 1 mps 705 mmHg 55%
    23:00 +23°C° 0 mm 1 mps 705 mmHg 58%
    Show more